GW4197 Weather Reports


time (UTC)temp
C
wind
direction
speed
KPH
gust
KPH
rain 1hr
cm
rain 24hr
cm
rain mn
cm
humidity
%
barometer
mb
20260504002531 6 65 35.4 64.4 0.00 0.00 0.00 87 981.9
20260504002503 6 75 32.2 64.4 0.00 0.00 0.00 87 983.9
20260504002032 6 53 29.0 67.6 0.00 0.00 0.00 87 981.9
20260504002003 6 73 29.0 67.6 0.00 0.00 0.00 87 984.1
20260504001548 6 113 29.0 67.6 0.00 0.00 0.00 87 981.9
20260504001503 6 70 29.0 67.6 0.00 0.00 0.00 87 984.5
20260504001032 6 89 29.0 62.8 0.00 0.00 0.00 87 982.8
20260504001024 6 71 29.0 62.8 0.00 0.00 0.00 88 984.7
20260504000532 6 111 30.6 62.8 0.00 0.00 0.00 87 982.8
20260504000504 6 68 27.4 62.8 0.00 0.00 0.00 88 984.9
20260504000050 6 56 29.0 54.7 0.00 0.00 0.00 88 983.5
20260504000003 6 64 25.7 54.7 0.00 0.00 0.00 88 985.6
20260503235531 6 106 25.7 54.7 0.00 0.00 0.00 88 983.9
20260503235503 6 65 29.0 54.7 0.00 0.00 0.00 89 985.8
20260503235031 6 86 29.0 53.1 0.00 0.00 0.00 88 984.1
20260503235003 6 64 29.0 53.1 0.00 0.00 0.00 88 985.9
20260503234552 6 72 27.4 54.7 0.00 0.00 0.00 88 984.3
20260503234504 6 64 30.6 54.7 0.00 0.00 0.00 88 986.2
20260503234031 6 70 32.2 54.7 0.00 0.00 0.00 88 984.7
20260503234003 6 66 29.0 54.7 0.00 0.00 0.00 88 986.5
20260503233531 6 106 30.6 49.9 0.00 0.00 0.00 88 985.1
20260503233503 6 65 27.4 49.9 0.00 0.00 0.00 89 987.1
20260503233047 6 71 25.7 49.9 0.00 0.00 0.00 89 985.5
20260503233003 6 66 25.7 49.9 0.00 0.00 0.00 89 987.9
20260503232530 6 89 25.7 49.9 0.00 0.00 0.00 89 986.1
20260503232503 6 67 25.7 49.9 0.00 0.00 0.00 89 988.3
20260503232031 6 100 25.7 46.7 0.00 0.00 0.00 89 986.8
20260503232003 6 68 20.9 46.7 0.00 0.00 0.00 89 988.7
20260503231554 6 75 17.7 32.2 0.00 0.00 0.00 89 987.4
20260503231503 6 71 12.9 32.2 0.00 0.00 0.00 90 989.6
20260503231032 5 79 11.3 25.7 0.00 0.00 0.00 89 987.9
20260503231024 6 71 9.7 25.7 0.00 0.00 0.00 90 989.9
20260503230531 5 82 9.7 32.2 0.00 0.00 0.00 89 988.1
20260503230524 6 65 14.5 32.2 0.00 0.00 0.00 89 990.2
20260503230051 5 58 16.1 45.1 0.00 0.00 0.00 88 988.4
20260503230003 6 63 19.3 45.1 0.00 0.00 0.00 89 990.5
20260503225531 5 39 16.1 45.1 0.00 0.00 0.00 89 988.6
20260503225503 6 61 17.7 45.1 0.00 0.00 0.00 89 990.7
20260503225031 5 101 12.9 37.0 0.00 0.00 0.00 89 989.0
20260503225024 6 62 16.1 37.0 0.00 0.00 0.00 89 991.1
20260503224546 5 79 17.7 37.0 0.00 0.00 0.00 89 989.6
20260503224503 6 65 19.3 37.0 0.00 0.00 0.00 89 991.4
20260503224032 5 77 20.9 51.5 0.00 0.00 0.00 89 989.8
20260503224003 5 66 20.9 51.5 0.00 0.00 0.00 89 991.6
20260503223532 5 82 24.1 51.5 0.00 0.00 0.00 89 990.2
20260503223503 5 65 17.7 51.5 0.00 0.00 0.00 90 992.0
20260503223052 5 110 16.1 30.6 0.00 0.00 0.00 89 990.6
20260503223003 5 64 17.7 30.6 0.00 0.00 0.00 90 992.7
20260503222531 5 98 19.3 35.4 0.00 0.00 0.00 90 991.1
20260503222503 5 61 19.3 35.4 0.00 0.00 0.00 90 992.8
20260503222031 5 78 20.9 35.4 0.00 0.00 0.00 91 991.4
20260503222003 6 61 17.7 35.4 0.00 0.00 0.00 91 993.1
20260503221551 5 59 16.1 29.0 0.00 0.00 0.00 91 991.9
20260503221503 5 60 12.9 29.0 0.00 0.00 0.00 92 993.9
20260503221034 5 63 11.3 19.3 0.00 0.00 0.00 92 992.2
20260503221003 5 60 9.7 19.3 0.00 0.00 0.00 92 994.3
20260503220532 5 55 8.0 19.3 0.00 0.00 0.00 92 992.5
20260503220504 5 60 8.0 19.3 0.00 0.00 0.00 93 994.6
20260503220048 5 106 9.7 19.3 0.00 0.00 0.00 92 992.8
20260503220003 5 48 6.4 19.3 0.00 0.00 0.00 92 994.8
20260503215530 5 56 6.4 12.9 0.00 0.00 0.00 91 993.2
20260503215524 5 43 8.0 12.9 0.00 0.00 0.00 92 995.3
20260503215031 5 66 8.0 27.4 0.00 0.00 0.00 91 993.5
20260503215003 5 49 9.7 16.1 0.00 0.00 0.00 91 995.5
20260503214546 5 74 9.7 27.4 0.00 0.00 0.00 91 993.7
20260503214503 5 51 12.9 27.4 0.00 0.00 0.00 91 995.6
20260503214032 5 56 16.1 27.4 0.00 0.00 0.00 90 993.8
20260503214003 5 50 14.5 27.4 0.00 0.00 0.00 91 995.7
20260503213533 5 63 14.5 22.5 0.00 0.00 0.00 90 993.8
20260503213503 5 45 14.5 22.5 0.00 0.00 0.00 91 995.7
20260503213043 5 69 14.5 29.0 0.00 0.00 0.00 90 993.9
20260503213024 5 48 12.9 24.1 0.00 0.00 0.00 91 996.1
20260503212535 5 67 12.9 37.0 0.00 0.00 0.00 90 994.2
20260503212503 6 52 16.1 30.6 0.00 0.00 0.00 90 996.3
20260503212031 5 73 17.7 37.0 0.00 0.00 0.00 89 994.4
20260503212003 6 52 17.7 37.0 0.00 0.00 0.00 90 996.4
20260503211542 6 53 19.3 37.0 0.00 0.00 0.00 90 994.4
20260503211503 6 56 16.1 37.0 0.00 0.00 0.00 90 996.5
20260503211033 6 86 16.1 30.6 0.00 0.00 0.00 90 994.7
20260503211003 6 56 16.1 30.6 0.00 0.00 0.00 91 996.6
20260503210532 6 75 17.7 30.6 0.00 0.00 0.00 91 994.7
20260503210503 6 54 14.5 30.6 0.00 0.00 0.00 92 996.6
20260503210048 6 75 11.3 22.5 0.00 0.00 0.00 92 994.7
20260503210004 6 47 14.5 22.5 0.00 0.00 0.00 92 996.7
20260503205533 6 72 14.5 22.5 0.00 0.00 0.00 92 994.5
20260503205524 6 42 16.1 22.5 0.00 0.00 0.00 92 996.5
20260503205033 6 68 16.1 20.9 0.00 0.00 0.00 92 994.7
20260503205003 6 37 16.1 20.9 0.00 0.00 0.00 92 996.7
20260503204548 5 56 14.5 20.9 0.00 0.00 0.00 92 995.1
20260503204503 6 37 14.5 20.9 0.00 0.00 0.00 92 997.3
20260503204032 5 53 12.9 24.1 0.00 0.00 0.00 92 995.5
20260503204003 6 37 14.5 20.9 0.00 0.00 0.00 92 997.6
20260503203536 5 40 14.5 25.7 0.00 0.00 0.00 92 995.7
20260503203503 6 32 16.1 24.1 0.00 0.00 0.00 92 997.6
20260503203051 5 29 17.7 25.7 0.00 0.00 0.00 91 995.6
20260503203003 5 32 17.7 25.7 0.00 0.00 0.00 92 997.7
20260503202532 5 64 17.7 25.7 0.00 0.00 0.00 91 996.0
20260503202503 5 33 17.7 25.7 0.00 0.00 0.00 92 998.0
20260503202037 5 79 16.1 25.7 0.00 0.00 0.00 91 996.2
20260503202003 5 32 16.1 25.7 0.00 0.00 0.00 92 998.3
20260503201549 5 43 17.7 25.7 0.00 0.00 0.00 91 996.4
20260503201503 5 30 17.7 25.7 0.00 0.00 0.00 91 998.5
20260503201031 5 61 17.7 24.1 0.00 0.00 0.00 90 996.6
20260503201003 5 32 17.7 24.1 0.00 0.00 0.00 91 998.7
20260503200533 5 44 17.7 24.1 0.00 0.00 0.00 90 997.0
20260503200503 5 34 17.7 24.1 0.00 0.00 0.00 90 999.0
20260503200050 5 55 17.7 24.1 0.00 0.00 0.00 89 997.2
20260503200004 5 37 17.7 24.1 0.00 0.00 0.00 90 999.4
20260503195533 5 56 16.1 24.1 0.00 0.00 0.00 89 997.5
20260503195503 6 39 16.1 24.1 0.00 0.00 0.00 89 999.9
20260503195036 6 54 17.7 24.1 0.00 0.00 0.00 88 998.1
20260503195003 6 38 16.1 24.1 0.00 0.00 0.00 89 1000.3
20260503194550 6 53 16.1 24.1 0.00 0.00 0.00 87 998.3
20260503194503 6 42 14.5 24.1 0.00 0.00 0.00 88 1000.5
20260503194033 6 70 12.9 27.4 0.00 0.00 0.00 86 998.5
20260503194003 6 50 14.5 27.4 0.00 0.00 0.00 86 1000.7
20260503193531 6 60 14.5 38.6 0.00 0.00 0.00 85 998.7
20260503193503 6 49 19.3 38.6 0.00 0.00 0.00 85 1000.7
20260503193055 6 75 22.5 38.6 0.00 0.00 0.00 84 998.5
20260503193003 6 48 20.9 38.6 0.00 0.00 0.00 84 1000.4
20260503192532 6 61 20.9 30.6 0.00 0.00 0.00 84 998.5
20260503192503 6 49 19.3 30.6 0.00 0.00 0.00 84 1000.6
20260503192031 6 74 17.7 30.6 0.00 0.00 0.00 83 998.8
20260503192003 6 51 17.7 30.6 0.00 0.00 0.00 83 1000.9
20260503191543 6 67 19.3 30.6 0.00 0.00 0.00 82 999.2
20260503191503 6 52 19.3 30.6 0.00 0.00 0.00 83 1001.6
20260503191033 6 92 22.5 35.4 0.00 0.00 0.00 82 999.6
20260503191003 6 51 19.3 35.4 0.00 0.00 0.00 82 1001.9
20260503190531 6 68 20.9 35.4 0.00 0.00 0.00 81 999.8
20260503190504 6 50 19.3 35.4 0.00 0.00 0.00 81 1002.1
20260503190052 6 72 19.3 27.4 0.00 0.00 0.00 80 1000.6
20260503190003 7 51 16.1 27.4 0.00 0.00 0.00 80 1002.7
20260503185531 6 63 16.1 25.7 0.00 0.00 0.00 79 1001.1
20260503185503 7 54 14.5 25.7 0.00 0.00 0.00 79 1003.3
20260503185034 7 77 11.3 20.9 0.00 0.00 0.00 77 1001.4
20260503185004 7 58 12.9 20.9 0.00 0.00 0.00 78 1003.9
20260503184555 7 74 9.7 25.7 0.00 0.00 0.00 75 1002.0
20260503184503 7 59 12.9 25.7 0.00 0.00 0.00 76 1004.2
20260503184032 7 73 11.3 27.4 0.00 0.00 0.00 73 1002.3
20260503184003 7 60 12.9 25.7 0.00 0.00 0.00 73 1004.4
20260503183531 8 88 14.5 27.4 0.00 0.00 0.00 69 1002.4
20260503183503 8 64 14.5 27.4 0.00 0.00 0.00 70 1004.4
20260503183047 8 84 16.1 32.2 0.00 0.00 0.00 68 1002.5
20260503183003 8 67 16.1 32.2 0.00 0.00 0.00 68 1004.5
20260503182541 8 77 16.1 32.2 0.00 0.00 0.00 65 1002.5
20260503182503 8 74 12.9 32.2 0.00 0.00 0.00 65 1004.6
20260503182035 8 70 9.7 19.3 0.00 0.00 0.00 61 1003.0
20260503182005 9 82 9.7 19.3 0.00 0.00 0.00 62 1005.2
20260503181542 9 88 11.3 22.5 0.00 0.00 0.00 60 1003.1
20260503181504 9 91 9.7 22.5 0.00 0.00 0.00 60 1005.4
20260503181031 9 120 11.3 24.1 0.00 0.00 0.00 58 1003.5
20260503181003 10 104 11.3 24.1 0.00 0.00 0.00 59 1006.0
20260503180531 9 108 14.5 25.7 0.00 0.00 0.00 57 1003.9
20260503180524 10 103 11.3 25.7 0.00 0.00 0.00 57 1006.2
20260503180051 10 149 9.7 25.7 0.00 0.00 0.00 55 1004.1
20260503180004 10 100 9.7 25.7 0.00 0.00 0.00 56 1006.3
20260503175530 10 138 11.3 22.5 0.00 0.00 0.00 55 1004.2
20260503175503 10 92 8.0 22.5 0.00 0.00 0.00 56 1006.5
20260503175030 10 191 8.0 19.3 0.00 0.00 0.00 55 1004.5
20260503175003 10 99 8.0 19.3 0.00 0.00 0.00 55 1006.8